Location: ?????
(31.8092°N, 35.2590°E)
Time: 03:32:16
(UTC+00:00)

Cosmos 2360 Rocket - Pass Details

Date: 18 October 2021
Orbit: 832 x 846 km, 71.0° (Epoch: 07 December)

Event Time Altitude Azimuth Distance (km) Brightness Sun altitude
Rises 18:03:15 0° 223° (SW) 3,369 5.6 -38.8°
Reaches altitude 10° 18:05:54 10° 232° (SW) 2,440 4.9 -39.3°
Enters shadow 18:07:19 17° 241° (WSW) 1,993 4.5 -39.6°
